Auburn, AL

3:20 PM CDT on August 30, 2016 (GMT -0500)
Auburn-opelika-pitts

Weather History for KAUO - August, 2013

Change the Weather History Date:

Tuesday, August 6, 2013

  Actual Average Record
Temperature  
Mean Temperature 80 °F -  
Max Temperature 90 °F - 99 °F (2008)
Min Temperature 70 °F - 59 °F (1976)
Cooling Degree Days 15    
Month to date cooling degree days 87  
Year to date cooling degree days 1024  
Since 1 June cooling degree days 774  
Growing Degree Days 29 (Base 50)    
Moisture  
Dew Point 69 °F    
Average Humidity 77    
Maximum Humidity 94    
Minimum Humidity 51    
Precipitation  
Precipitation 0.06 in - 0.72 in (1978)
Month to date precipitation 0.21  
Year to date precipitation 30.97  
Sea Level Pressure  
Sea Level Pressure 30.01 in    
Wind  
Wind Speed 4 mph (NNW)    
Max Wind Speed 8 mph    
Max Gust Speed -    
Visibility 9 miles    
Events Thunderstorm    
T = Trace of Precipitation, MM = Missing Value Source: NWS Daily Summary

Daily Weather History Graph

Daily Weather History Graph

Search for Another Location

Airport or City:

Trip Planner

Search our weather history database for the weather conditions in past years. The results will help you decide how hot, cold, wet, or windy it might be!

Date:

Astronomy

Aug. 06, 2013 Rise Set
Actual Time 5:59 AM CDT 7:35 PM CDT
Civil Twilight 5:32 AM CDT 8:01 PM CDT
Nautical Twilight 5:01 AM CDT 8:33 PM CDT
Astronomical Twilight 4:27 AM CDT 9:06 PM CDT
Moon 5:46 AM CDT (8/6) 7:14 PM CDT (8/6)
Length of Visible Light 14h 28m
Length of Day
13h 35m
Waning Crescent, 0% of the Moon is Illuminated
Aug 6
Waning Crescent
Aug 6
New
Aug 14
First Quarter
Aug 20
Full
Aug 28
Last Quarter

Hourly Weather History & Observations

Time (CDT) Temp. Heat Index Dew Point Humidity Pressure Visibility Wind Dir Wind Speed Gust Speed Precip Events Conditions
12:15 AM 73.4 °F - 66.2 °F 78% 30.01 in 10.0 mi Calm Calm - N/A   Clear
12:35 AM 73.4 °F - 66.2 °F 78% 30.00 in 10.0 mi Calm Calm - N/A   Clear
12:55 AM 73.4 °F - 66.2 °F 78% 30.00 in 10.0 mi NNW 4.6 mph - N/A   Clear
1:15 AM 73.4 °F - 64.4 °F 73% 30.00 in 10.0 mi Calm Calm - N/A   Clear
1:35 AM 73.4 °F - 64.4 °F 73% 29.99 in 10.0 mi Calm Calm - N/A   Clear
1:55 AM 73.4 °F - 66.2 °F 78% 29.98 in 10.0 mi Calm Calm - N/A   Clear
2:15 AM 73.4 °F - 64.4 °F 73% 29.97 in 10.0 mi Calm Calm - N/A   Clear
2:35 AM 73.4 °F - 64.4 °F 73% 29.98 in 10.0 mi Calm Calm - N/A   Clear
2:55 AM 71.6 °F - 64.4 °F 78% 29.98 in 10.0 mi NE 3.5 mph - N/A   Clear
3:15 AM 71.6 °F - 64.4 °F 78% 29.98 in 10.0 mi NE 3.5 mph - N/A   Clear
3:35 AM 71.6 °F - 64.4 °F 78% 29.98 in 10.0 mi Calm Calm - N/A   Clear
3:55 AM 71.6 °F - 64.4 °F 78% 29.98 in 10.0 mi Calm Calm - N/A   Clear
4:15 AM 71.6 °F - 64.4 °F 78% 29.98 in 10.0 mi Calm Calm - N/A   Clear
4:35 AM 69.8 °F - 64.4 °F 83% 29.98 in 10.0 mi North 4.6 mph - N/A   Clear
4:55 AM 69.8 °F - 64.4 °F 83% 29.98 in 10.0 mi North 3.5 mph - N/A   Clear
5:15 AM 69.8 °F - 64.4 °F 83% 29.98 in 10.0 mi Calm Calm - N/A   Clear
5:35 AM 69.8 °F - 64.4 °F 83% 29.99 in 10.0 mi Calm Calm - N/A   Clear
5:55 AM 69.8 °F - 64.4 °F 83% 30.00 in 10.0 mi Calm Calm - N/A   Clear
6:15 AM 69.8 °F - 64.4 °F 83% 30.01 in 10.0 mi North 3.5 mph - N/A   Scattered Clouds
6:35 AM 69.8 °F - 66.2 °F 88% 30.01 in 10.0 mi Calm Calm - N/A   Scattered Clouds
6:55 AM 71.6 °F - 66.2 °F 83% 30.02 in 10.0 mi Calm Calm - N/A   Mostly Cloudy
7:15 AM 73.4 °F - 68.0 °F 83% 30.03 in 10.0 mi Calm Calm - N/A   Overcast
7:35 AM 73.4 °F - 68.0 °F 83% 30.03 in 10.0 mi North 3.5 mph - N/A   Scattered Clouds
7:55 AM 75.2 °F - 68.0 °F 78% 30.03 in 10.0 mi Calm Calm - N/A   Clear
8:15 AM 77.0 °F - 66.2 °F 69% 30.04 in 10.0 mi North 4.6 mph - N/A   Clear
8:35 AM 78.8 °F - 64.4 °F 61% 30.04 in 10.0 mi NNW 5.8 mph - N/A   Clear
8:55 AM 80.6 °F 82.7 °F 66.2 °F 61% 30.04 in 10.0 mi NNW 5.8 mph - N/A   Clear
9:15 AM 80.6 °F 83.2 °F 68.0 °F 65% 30.04 in 10.0 mi NW 5.8 mph - N/A   Clear
9:35 AM 80.6 °F 83.2 °F 68.0 °F 65% 30.04 in 10.0 mi WNW 9.2 mph - N/A   Clear
9:55 AM 82.4 °F 85.4 °F 68.0 °F 62% 30.05 in 10.0 mi NW 8.1 mph - N/A   Clear
10:15 AM 82.4 °F 86.3 °F 69.8 °F 66% 30.05 in 10.0 mi NW 9.2 mph - N/A   Clear
10:35 AM 82.4 °F 86.3 °F 69.8 °F 66% 30.05 in 10.0 mi NNW 6.9 mph - N/A   Partly Cloudy
10:55 AM 82.4 °F 86.3 °F 69.8 °F 66% 30.05 in 10.0 mi NW 8.1 mph - N/A   Scattered Clouds
11:15 AM 84.2 °F 88.4 °F 69.8 °F 62% 30.04 in 10.0 mi WNW 8.1 mph - N/A   Partly Cloudy
11:35 AM 84.2 °F 88.4 °F 69.8 °F 62% 30.04 in 10.0 mi NNW 8.1 mph - N/A   Scattered Clouds
11:55 AM 86.0 °F 90.4 °F 69.8 °F 58% 30.04 in 9.0 mi WNW 4.6 mph - N/A   Scattered Clouds
12:15 PM 86.0 °F 88.2 °F 66.2 °F 51% 30.04 in 10.0 mi Calm Calm - N/A   Scattered Clouds
12:35 PM 86.0 °F 90.4 °F 69.8 °F 58% 30.03 in 10.0 mi North 4.6 mph - N/A   Mostly Cloudy
12:55 PM 87.8 °F 92.6 °F 69.8 °F 55% 30.02 in 10.0 mi North 8.1 mph - N/A   Scattered Clouds
1:15 PM 87.8 °F 92.6 °F 69.8 °F 55% 30.02 in 10.0 mi NNW 5.8 mph - N/A   Scattered Clouds
1:35 PM 87.8 °F 92.6 °F 69.8 °F 55% 30.01 in 10.0 mi NNE 3.5 mph - N/A   Partly Cloudy
1:55 PM 89.6 °F 94.7 °F 69.8 °F 52% 30.00 in 10.0 mi North 8.1 mph - N/A   Mostly Cloudy
2:15 PM 87.8 °F 92.6 °F 69.8 °F 55% 30.00 in 10.0 mi East 4.6 mph - N/A   Scattered Clouds
2:35 PM 86.0 °F 90.4 °F 69.8 °F 58% 29.99 in 10.0 mi ESE 5.8 mph - N/A   Mostly Cloudy
2:55 PM 84.2 °F 88.4 °F 69.8 °F 62% 29.99 in 10.0 mi ENE 5.8 mph - N/A   Mostly Cloudy
3:15 PM 78.8 °F - 71.6 °F 78% 29.99 in 10.0 mi North 5.8 mph - 0.06 in   Mostly Cloudy
3:35 PM 78.8 °F - 73.4 °F 83% 29.99 in 10.0 mi Calm Calm - 0.06 in   Scattered Clouds
3:55 PM 78.8 °F - 73.4 °F 83% 30.01 in 8.0 mi NW 8.1 mph - 0.06 in   Mostly Cloudy
4:15 PM 75.2 °F - 71.6 °F 89% 30.01 in 9.0 mi NW 9.2 mph - N/A Thunderstorm Partly Cloudy
4:35 PM 75.2 °F - 71.6 °F 89% 30.00 in 9.0 mi NNW 6.9 mph - N/A Thunderstorm Clear
4:55 PM 77.0 °F - 73.4 °F 89% 29.99 in 10.0 mi North 4.6 mph - N/A Thunderstorm Thunderstorm
5:15 PM 77.0 °F - 73.4 °F 89% 30.00 in 10.0 mi Calm Calm - N/A Thunderstorm Thunderstorm
5:35 PM 78.8 °F - 73.4 °F 83% 30.00 in 10.0 mi Calm Calm - N/A Thunderstorm Thunderstorm
5:55 PM 77.0 °F - 73.4 °F 89% 30.00 in 10.0 mi Calm Calm - N/A   Clear
6:15 PM 78.8 °F - 73.4 °F 83% 29.99 in 10.0 mi North 4.6 mph - N/A   Clear
6:35 PM 78.8 °F - 73.4 °F 83% 30.00 in 10.0 mi North 3.5 mph - N/A   Clear
6:55 PM 77.0 °F - 73.4 °F 89% 30.01 in 9.0 mi North 3.5 mph - N/A   Clear
7:15 PM 77.0 °F - 73.4 °F 89% 30.02 in 9.0 mi North 3.5 mph - N/A   Clear
7:35 PM 77.0 °F - 73.4 °F 89% 30.02 in 8.0 mi Calm Calm - N/A   Clear
7:55 PM 75.2 °F - 73.4 °F 94% 30.02 in 8.0 mi NW 8.1 mph - N/A   Clear
8:15 PM 75.2 °F - 71.6 °F 89% 30.02 in 7.0 mi Calm Calm - N/A   Clear
8:35 PM 75.2 °F - 71.6 °F 89% 30.03 in 10.0 mi Calm Calm - N/A   Clear
8:55 PM 75.2 °F - 73.4 °F 94% 30.03 in 8.0 mi Calm Calm - N/A   Clear
9:15 PM 75.2 °F - 71.6 °F 89% 30.03 in 8.0 mi North 3.5 mph - N/A   Clear
9:35 PM 75.2 °F - 71.6 °F 89% 30.02 in 7.0 mi North 3.5 mph - N/A   Clear
9:55 PM 75.2 °F - 71.6 °F 89% 30.02 in 9.0 mi Calm Calm - N/A   Clear
10:15 PM 75.2 °F - 71.6 °F 89% 30.02 in 9.0 mi Calm Calm - N/A   Clear
10:35 PM 75.2 °F - 73.4 °F 94% 30.02 in 8.0 mi Calm Calm - N/A   Clear
10:55 PM 75.2 °F - 73.4 °F 94% 30.01 in 6.0 mi Calm Calm - N/A   Clear
11:15 PM 75.2 °F - 73.4 °F 94% 30.01 in 5.0 mi Calm Calm - N/A   Clear
11:35 PM 73.4 °F - 71.6 °F 94% 30.01 in 3.0 mi West 5.8 mph - N/A   Mostly Cloudy
11:55 PM 73.4 °F - 71.6 °F 94% 30.01 in 1.0 mi Calm Calm - N/A   Overcast